Temp
10 12 13 14 14 15 15 15 16 18 18 18 19 20 20 21 21 22 20 21 21 22 23 25 27 28 29 28 29 27 24 22 21 22 22 24 23 23 23 22 22 22 20 20 19
11 12 13 14 14 15 15 15 17 18 18 18 18 19 19 20 22 22 22 23 24 24 24 24 25 28 25 25 25 25 23 22 23 22 20 21 21 22 21 21 21 21 21 21 20
11 12 13 14 14 15 16 16 17 18 18 18 18 19 19 20 20 21 23 23 24 25 25 25 28 26 25 25 24 23 23 23 21 22 21 21 20 20 20 20 20 20 20 20 20
12 13 13 13 15 15 16 16 17 19 19 18 19 19 19 19 18 22 23 23 25 26 26 27 25 24 24 23 23 23 23 22 21 21 20 19 20 20 20 19 21 20 20 20 19
12 13 13 14 14 15 16 16 18 19 19 19 19 19 21 19 20 22 23 23 25 26 27 25 24 23 22 22 23 22 22 22 21 21 20 21 19 19 19 20 22 21 20 19 19
12 13 13 14 15 16 16 16 18 19 19 19 20 21 20 17 22 22 23 23 24 25 25 26 23 23 23 23 21 22 22 21 21 20 20 20 19 20 19 20 21 20 19 18 18
12 13 13 14 15 16 16 17 18 19 19 20 20 21 19 19 22 22 23 24 24 24 24 26 26 23 22 21 22 21 20 20 21 20 19 19 17 17 20 20 20 19 18 17 17
12 13 14 14 15 16 17 17 18 20 20 20 21 20 19 21 22 22 23 23 24 24 25 26 26 23 23 21 22 21 19 17 22 23 21 18 17 19 19 19 18 18 18 16 17
12 13 14 14 15 16 17 18 19 20 21 21 21 21 20 22 22 21 22 22 24 24 25 26 25 21 22 20 20 20 17 18 21 23 22 19 16 19 19 19 18 16 16 16 15
12 13 14 14 15 17 18 18 18 20 21 21 21 18 21 20 22 22 22 23 24 24 24 24 20 19 19 19 19 20 19 20 19 20 18 17 16 18 18 17 15 15 15 15 14
12 13 14 15 15 16 17 18 17 16 20 19 19 19 21 22 22 22 23 23 24 22 20 19 17 17 19 21 23 20 19 18 20 21 18 17 16 17 16 16 15 14 14 14 15
11 12 14 15 15 16 17 16 17 19 17 21 21 21 22 22 20 20 22 23 20 19 19 16 16 19 22 20 19 21 18 18 20 21 20 17 16 17 17 17 15 15 14 14 14
11 12 13 14 14 16 16 18 18 21 16 20 21 21 20 21 19 19 20 20 18 17 17 15 19 21 20 18 19 17 18 18 19 21 21 17 17 17 17 17 16 16 15 15 15
11 12 13 13 15 16 17 18 18 19 13 18 20 20 21 20 18 21 21 20 20 17 17 17 20 20 17 17 18 18 18 19 19 18 17 18 15 16 17 16 16 15 14 15 17
11 12 13 14 13 16 18 18 18 17 12 19 20 21 21 20 18 18 21 21 19 19 16 16 16 17 16 17 18 17 18 18 19 17 19 19 15 15 17 16 15 14 14 15 13
11 12 13 14 14 17 17 17 17 10 12 19 20 20 20 21 20 20 19 19 18 16 15 16 17 16 17 18 18 18 18 18 19 17 13 19 16 15 16 17 16 16 15 13 13
11 12 13 13 15 16 17 16 11 9 19 18 18 20 19 19 19 18 18 18 14 12 15 16 16 17 17 17 18 18 15 11 13 11 13 20 16 15 16 17 16 15 14 13 12
11 12 13 13 14 16 15 12 11 15 18 20 20 20 19 19 19 18 17 15 18 18 12 12 11 14 17 16 16 17 15 10 13 12 15 20 16 12 17 17 16 16 14 13 13
11 11 12 13 13 14 10 10 12 14 20 20 20 19 18 18 19 19 17 17 16 15 15 13 13 15 15 15 15 17 10 15 12 14 12 15 15 15 16 16 16 15 14 13 13
11 12 12 13 13 14 10 11 15 19 21 20 19 20 17 18 17 16 17 17 16 16 16 16 12 16 15 15 14 14 15 10 7 8 10 14 15 11 15 15 16 14 13 13 13
13 10 12 13 13 8 9 11 18 20 22 20 20 19 19 17 18 17 16 17 17 16 16 15 10 14 15 15 13 12 10 11 10 9 9 10 13 15 15 14 14 15 14 13 14
12 8 10 12 8 7 8 15 18 20 21 20 20 22 19 18 18 18 16 16 16 16 14 14 10 9 13 13 14 14 13 11 6 8 8 9 10 14 13 14 15 15 16 13 13
9 8 11 11 8 8 14 17 19 19 19 19 20 20 19 18 17 15 15 16 16 15 13 14 10 7 12 11 10 9 6 5 4 8 10 7 10 14 15 15 15 13 13 14 14
7 5 7 9 10 12 14 16 17 19 19 20 20 20 19 17 16 14 14 16 16 13 13 14 11 8 9 9 7 5 5 3 3 3 7 8 13 15 14 15 14 15 16 14 14
7 6 8 7 7 12 15 16 16 17 18 19 18 18 18 16 15 13 14 14 13 12 14 10 7 7 7 12 11 10 8 7 4 6 7 11 11 12 12 12 14 16 15 15 15
5 8 10 9 11 13 12 14 16 17 16 17 17 17 16 15 14 12 12 12 12 12 12 11 8 12 9 12 13 13 11 10 9 10 10 10 10 12 13 13 15 15 15 14 14
13 13 9 9 11 10 11 15 16 16 17 17 17 16 12 16 16 14 13 12 12 10 11 10 7 7 9 11 10 8 10 12 12 11 10 9 10 12 13 14 15 15 14 14 14
Height
841 839 837 836 837 836 837 836 838 836 834 830 828 826 825 824 823 819 815 822 816 810 807 799 793 790 793 794 792 798 833 858 863 863 867 857 861 864 861 859 861 866 873 880 880
841 840 838 836 837 837 836 836 838 837 836 833 830 827 826 825 823 820 824 819 813 810 806 803 799 794 799 798 806 817 846 861 855 859 869 867 868 872 870 872 875 876 879 882 880
839 840 839 837 836 836 837 836 837 838 836 835 832 829 827 826 826 828 823 819 815 811 807 805 803 802 807 804 815 831 848 853 861 860 863 872 877 878 879 882 883 886 887 886 884
839 839 839 837 836 836 837 836 837 838 837 836 834 831 828 828 849 832 827 821 817 813 809 806 807 814 820 829 828 844 851 857 864 864 869 879 882 884 882 888 885 887 890 890 891
838 839 839 837 837 836 837 836 837 838 837 836 834 830 829 833 838 834 827 825 818 812 808 810 815 820 831 838 842 851 858 861 865 870 875 877 887 889 889 887 887 889 892 894 896
837 839 839 837 837 837 837 836 837 840 838 836 835 830 831 844 837 834 831 827 823 818 814 815 822 821 832 840 849 857 860 867 870 875 879 883 891 888 893 890 892 893 897 899 900
837 838 839 837 837 838 839 838 837 839 839 837 837 835 836 842 837 835 833 831 829 825 821 822 823 827 836 850 850 858 872 873 875 877 886 883 903 904 895 894 896 900 903 904 905
837 837 839 838 837 838 840 840 839 840 840 839 838 837 844 841 838 835 834 833 834 830 828 827 827 830 839 844 856 869 873 896 877 874 876 887 920 901 897 899 903 904 906 907 909
836 837 839 838 838 839 841 842 841 841 841 840 839 838 847 843 842 840 838 836 836 835 833 834 834 843 847 864 876 874 897 896 886 871 875 889 916 901 899 902 907 908 909 910 911
835 838 838 839 839 841 841 842 842 840 841 840 841 846 846 848 842 840 838 838 837 837 838 840 849 864 868 876 890 882 889 888 895 888 888 903 910 903 903 906 911 912 913 914 914
835 837 838 839 840 841 842 843 845 846 843 846 847 846 846 845 843 840 835 836 836 843 857 852 874 887 875 865 858 872 886 896 889 884 894 902 910 907 908 910 914 915 915 916 917
835 837 838 840 841 842 843 844 844 846 855 847 847 847 846 847 851 842 838 841 849 863 859 876 889 873 864 867 876 873 889 898 889 883 890 903 912 907 907 910 913 916 918 919 918
835 837 839 840 842 844 844 843 841 840 856 854 850 851 852 851 857 852 844 846 862 871 873 886 882 869 871 882 883 896 899 899 899 889 887 902 915 912 908 910 912 914 916 917 917
835 837 839 842 848 844 844 843 841 842 872 864 857 854 853 853 864 855 850 852 860 880 878 884 874 877 886 890 892 900 897 894 895 902 917 895 932 918 912 914 914 916 918 917 915
835 837 839 844 844 845 844 843 843 846 900 858 854 852 852 858 864 864 855 854 867 871 883 897 892 889 897 897 890 903 896 897 896 904 901 898 921 918 909 916 917 918 917 916 918
835 837 840 844 844 845 845 845 846 884 897 857 851 855 857 856 863 865 862 857 868 882 888 895 890 894 896 890 889 890 895 896 894 905 933 896 912 925 917 911 915 916 915 918 917
834 836 840 843 844 845 846 848 882 905 847 856 856 852 857 864 868 874 873 874 890 909 903 898 901 897 894 897 890 891 904 939 933 945 938 891 909 918 907 905 909 912 916 917 917
835 836 840 843 844 846 849 862 884 860 849 840 846 850 861 861 867 874 879 887 877 878 908 920 931 909 900 904 904 900 907 937 935 943 925 891 914 926 903 903 905 908 913 915 916
836 837 840 842 844 847 856 879 869 857 832 841 848 856 862 864 866 871 881 883 881 885 897 912 918 907 907 908 909 904 935 912 928 921 935 914 916 910 905 908 909 911 913 915 917
834 837 840 842 845 849 864 866 851 833 825 837 849 846 862 865 872 876 879 881 886 881 884 891 920 907 909 909 910 911 912 941 958 967 953 920 915 928 911 911 910 914 915 914 915
833 838 839 842 846 857 871 863 837 828 824 838 839 846 848 861 865 871 881 882 882 884 882 891 919 917 911 913 921 922 931 930 936 945 958 949 928 901 906 910 913 910 911 912 912
829 843 839 842 857 863 866 846 833 830 826 834 832 831 843 853 859 864 879 882 880 883 893 895 917 934 916 915 912 912 917 927 964 960 953 952 939 905 906 905 906 907 905 908 908
828 839 841 843 858 859 843 837 833 833 835 838 838 835 835 851 864 870 880 881 881 887 896 896 918 951 927 926 925 932 946 950 958 946 941 962 936 903 902 904 904 906 905 904 904
823 850 846 844 841 840 842 840 840 832 836 836 838 838 841 856 855 876 884 884 883 891 892 893 906 929 937 930 938 953 950 960 963 981 954 941 917 908 909 908 906 902 901 902 901
819 836 831 846 848 837 834 837 840 843 838 838 843 843 848 863 866 879 882 889 893 896 894 905 930 932 931 911 918 924 933 942 960 946 947 921 924 916 913 909 902 897 896 896 897
820 822 824 830 833 835 837 839 839 840 844 847 849 847 852 863 867 880 883 892 894 899 900 903 927 908 922 910 909 911 914 921 927 925 927 925 922 910 903 900 896 895 895 896 895
808 810 817 832 832 840 837 830 834 837 842 842 844 850 865 859 856 864 874 883 887 899 903 909 926 934 925 912 918 936 911 904 909 909 914 928 912 901 900 895 894 893 892 892 892
Wind_Speed
3 1 1 2 1 4 4 4 2 7 5 4 7 9 13 14 10 27 18 20 19 18 18 23 12 14 8 3 5 8 12 13 8 17 16 18 22 17 16 22 25 24 15 19 20
4 2 1 1 2 3 3 3 4 7 7 7 11 11 13 13 11 25 26 22 18 14 17 14 9 15 7 8 11 18 14 13 16 15 19 18 19 16 14 19 20 19 23 24 23
4 3 2 1 2 2 3 2 3 7 6 8 10 11 12 12 3 10 28 24 19 12 15 15 8 8 21 15 6 5 15 11 12 18 21 22 21 8 14 17 15 14 15 22 23
5 3 3 1 1 1 1 2 2 5 6 6 9 11 11 3 5 15 26 25 16 12 10 7 11 12 16 19 9 25 17 17 15 13 18 21 14 15 14 10 15 15 19 21 22
6 4 4 1 1 1 1 2 1 1 2 6 11 9 3 6 6 13 21 24 18 19 9 5 8 7 11 16 22 22 16 15 17 20 17 19 13 10 12 10 17 21 21 19 22
6 5 4 2 1 1 1 3 4 4 2 8 16 5 2 7 9 10 15 20 22 19 26 21 8 10 8 6 8 8 17 13 14 17 14 19 10 6 8 10 14 17 17 21 24
7 5 5 2 3 3 3 3 7 5 3 7 11 11 14 3 8 13 9 14 14 16 9 13 10 6 8 16 8 10 14 8 6 6 13 17 12 8 8 10 12 15 15 18 23
8 6 6 3 5 5 4 5 8 5 4 5 6 9 3 5 8 10 13 12 9 10 12 13 19 8 5 8 7 6 6 5 4 1 4 10 4 5 8 11 11 12 12 12 18
9 7 7 5 7 8 8 7 3 4 1 7 4 3 3 5 10 7 7 5 6 4 8 9 8 5 6 6 4 4 4 9 3 2 3 7 7 3 8 11 10 9 9 11 9
9 8 8 7 9 11 10 7 4 1 5 5 6 7 3 4 2 2 4 6 5 4 4 3 5 4 4 2 3 7 7 6 5 4 19 13 7 5 7 9 9 9 9 8 8
10 9 8 8 11 12 6 2 3 5 12 7 4 9 5 8 17 4 7 11 4 5 3 9 10 5 7 7 5 12 12 8 2 3 8 10 8 7 7 9 9 8 8 8 7
11 10 9 11 12 9 4 1 4 4 6 11 9 9 3 2 5 16 14 3 8 5 5 8 8 7 7 10 14 9 13 6 2 2 6 11 8 7 8 6 7 9 8 8 7
12 10 10 12 10 10 1 4 7 4 5 4 3 4 5 17 5 10 11 10 12 15 11 8 4 5 9 12 10 11 6 5 4 1 2 8 3 7 6 8 8 7 7 6 5
12 11 12 11 6 9 3 2 2 8 5 3 3 3 3 5 6 13 9 4 4 8 8 7 4 7 9 6 5 4 5 3 4 3 3 6 3 6 9 8 8 8 7 6 3
13 13 16 16 1 6 2 5 1 4 4 7 5 2 3 0 8 7 10 2 6 4 6 1 7 7 7 3 4 3 2 4 4 5 3 4 5 5 10 8 7 8 7 5 8
15 16 18 10 2 9 7 4 5 6 3 5 4 6 5 4 3 2 6 13 6 11 9 4 3 5 3 1 2 5 3 5 3 1 2 3 5 5 5 6 7 6 7 8 8
17 19 19 3 3 10 8 3 5 4 5 7 6 8 8 6 5 3 1 3 4 5 3 4 3 2 4 3 3 2 5 3 4 3 4 3 4 4 7 8 9 8 8 7 8
17 19 15 5 10 11 6 4 3 5 6 6 12 9 6 8 5 8 4 3 6 3 4 4 4 7 7 3 2 4 3 4 5 2 3 1 3 5 6 8 8 8 8 8 7
19 14 11 11 10 9 5 3 6 6 5 9 9 9 9 4 4 4 5 4 3 5 4 5 2 2 7 6 4 2 4 1 4 2 2 3 3 5 7 7 6 7 8 7 6
16 11 6 10 12 4 4 3 3 4 8 13 5 6 6 8 6 6 3 2 2 2 0 3 5 3 3 2 6 4 3 3 3 3 2 5 4 4 8 8 7 6 7 6 5
16 4 7 10 10 5 4 5 4 6 4 9 5 7 9 9 7 6 5 3 3 2 3 4 5 1 3 1 4 1 2 4 3 3 4 1 4 5 6 7 7 5 6 6 5
8 3 9 16 3 3 3 5 3 4 3 2 3 1 7 11 6 4 6 4 6 5 3 1 6 3 2 3 6 3 3 5 4 4 2 3 5 6 8 7 7 6 5 7 7
4 3 4 3 4 3 4 3 2 2 4 2 3 3 8 6 6 9 7 4 6 3 4 3 1 3 3 4 5 4 3 3 3 3 4 5 5 6 6 4 7 8 8 6 7
4 3 2 1 2 8 6 5 3 4 3 2 2 4 4 4 7 5 5 2 3 3 6 5 2 5 6 5 4 1 2 2 5 3 2 5 3 2 5 3 6 3 1 6 6
2 4 5 5 3 6 5 7 6 4 2 1 2 3 4 4 6 6 6 5 6 2 3 4 3 4 4 2 4 5 5 8 5 5 5 2 4 8 10 9 6 1 2 4 5
4 4 2 5 7 9 6 9 8 5 5 4 4 7 6 5 6 8 9 4 4 3 4 2 1 2 2 6 7 7 11 13 12 7 9 11 16 13 16 8 4 3 3 5 7
4 4 4 4 6 6 5 6 9 9 5 6 6 4 10 1 3 12 8 8 8 8 5 4 4 2 0 6 6 7 8 12 10 10 10 8 11 8 8 6 4 2 4 6 7
Wind_Direction
254 215 145 96 22 36 358 3 258 213 248 333 7 16 1 353 22 28 33 337 328 331 333 339 313 301 302 327 355 86 85 72 75 93 99 88 80 70 76 77 66 64 95 83 61
242 230 189 96 31 19 356 11 279 243 257 297 326 350 1 356 6 21 0 2 350 339 334 339 352 35 26 16 85 93 85 82 86 90 74 71 74 71 73 68 73 72 64 58 57
216 240 226 98 41 16 1 19 294 259 265 294 322 344 352 356 353 352 354 359 352 344 320 310 356 49 63 64 48 61 101 91 87 95 86 82 66 51 76 69 67 74 71 54 51
202 218 239 96 42 35 4 26 320 264 276 310 330 334 334 31 58 337 352 352 357 336 299 343 69 62 79 74 58 86 75 82 80 86 87 84 84 64 58 86 89 85 82 69 53
198 216 234 116 46 34 35 74 69 203 333 354 347 323 56 50 35 351 360 352 6 28 36 68 77 73 82 95 77 89 96 97 100 97 90 93 82 96 75 59 88 84 76 72 62
200 215 234 144 110 98 130 119 112 135 38 15 29 50 78 78 1 4 13 6 13 31 60 70 75 101 89 81 76 137 106 102 101 103 98 83 62 76 59 75 76 74 65 61 59
201 209 234 165 136 134 152 141 128 141 19 17 13 76 52 17 16 4 25 14 5 22 38 52 47 88 97 91 105 113 103 68 73 116 127 95 39 52 87 82 79 82 78 68 60
203 206 225 182 146 143 147 139 126 120 81 32 16 33 75 19 41 26 52 18 34 35 42 96 83 66 74 107 93 93 59 87 345 272 202 81 100 35 87 81 72 72 81 79 72
199 205 214 188 155 142 131 147 129 129 35 337 351 125 65 0 23 22 30 340 357 17 72 89 60 74 61 94 78 180 114 121 98 238 160 97 141 158 103 89 79 66 62 72 68
195 207 205 187 160 150 154 164 164 159 286 294 274 54 49 297 12 19 339 300 258 184 23 110 72 82 42 85 255 150 124 82 120 41 92 100 133 114 92 97 96 80 67 60 68
196 202 199 181 169 178 171 315 343 0 37 65 46 93 128 68 41 6 8 331 167 41 81 22 67 31 345 330 45 94 91 99 64 331 114 128 124 119 101 80 81 85 79 64 53
197 197 190 180 182 174 182 222 43 162 75 79 48 64 78 297 6 350 345 55 56 64 65 45 50 318 345 38 51 88 112 114 76 323 98 135 141 147 113 113 104 92 79 74 48
196 193 182 179 178 180 225 23 313 90 90 13 45 69 48 60 12 333 15 89 85 65 67 102 195 5 70 34 40 36 46 30 123 145 292 116 113 129 125 119 103 96 101 88 104
195 185 172 159 162 187 299 258 290 12 87 159 222 144 226 125 25 350 355 75 78 118 105 83 331 99 73 61 10 91 354 335 300 141 216 154 192 176 160 153 137 134 130 133 84
192 178 163 163 297 177 174 223 47 354 90 199 106 144 52 51 148 339 326 341 107 83 81 325 34 60 76 40 4 134 294 4 341 336 23 250 92 205 167 173 151 154 137 94 66
188 175 171 187 169 178 182 142 21 44 221 155 131 163 141 113 97 345 13 55 95 62 62 87 66 36 21 217 93 184 213 202 213 150 41 234 119 234 168 141 135 118 98 88 75
185 175 176 327 190 150 160 63 53 132 188 161 176 165 137 139 120 151 109 100 119 85 34 70 57 114 6 296 213 263 65 22 18 15 210 112 58 207 141 116 124 117 103 103 89
180 173 186 124 152 167 141 66 118 190 176 162 153 147 135 149 132 189 114 46 9 56 148 130 325 359 342 38 352 42 85 141 169 159 303 161 183 234 141 120 123 112 124 105 101
163 148 149 159 160 160 80 88 202 220 187 148 149 154 134 83 111 128 205 137 72 55 133 118 71 23 30 25 23 14 49 217 103 290 69 203 44 10 130 123 122 127 105 110 102
154 144 131 166 154 119 79 218 243 244 126 141 152 176 144 145 139 177 140 77 118 32 168 95 110 191 127 284 11 85 169 65 4 96 270 294 138 227 167 159 152 106 113 109 97
150 119 171 179 146 52 160 231 289 287 169 174 205 183 152 150 157 163 133 120 119 180 353 84 106 155 97 197 166 52 59 49 116 123 165 245 287 176 137 123 108 100 141 139 140
167 105 165 156 101 167 163 210 279 260 38 56 332 153 154 153 157 150 151 144 143 178 90 63 125 128 106 30 6 3 133 140 125 256 229 153 271 128 121 134 159 199 195 191 178
112 118 149 175 147 187 204 252 266 112 69 17 18 1 124 139 119 104 79 113 175 76 140 187 40 90 17 7 4 48 29 105 105 76 219 138 256 161 147 160 240 216 220 212 199
96 99 3 352 194 149 164 177 191 100 124 224 119 337 99 67 84 117 103 131 69 91 56 90 128 151 185 193 131 137 171 181 117 115 235 224 244 160 37 298 296 23 174 199 213
86 200 182 190 254 179 145 158 151 149 156 162 66 251 117 120 98 109 111 102 72 55 59 101 118 101 218 157 153 181 176 175 176 201 163 250 313 302 306 287 268 165 289 308 271
125 137 118 151 164 173 176 178 162 146 131 200 151 228 111 136 162 157 122 146 167 199 171 59 181 90 300 223 237 249 210 194 204 220 254 267 280 267 265 259 330 302 20 323 293
166 126 104 175 163 150 197 156 173 137 196 190 196 111 55 261 93 139 128 167 148 146 162 117 115 86 206 47 30 321 226 211 197 195 198 208 234 248 270 274 275 261 283 276 284